Location: Unspecified
(49.2170°N, 0.0000°E)
Time: 15:42:39
(UTC+00:00)

Vanguard 1 - Pass Details

Date: 26 June 2021
Orbit: 651 x 3832 km, 34.2° (Epoch: 23 July)

Event Time Altitude Azimuth Distance (km) Brightness Sun altitude
Rises 02:17:44 0° 278° (W) 7,517 14.3 -11.5°
Reaches altitude 10° 02:25:43 10° 264° (W) 5,954 13.7 -10.8°
Maximum altitude 02:35:01 17° 231° (SW) 4,511 12.8 -9.9°
Drops below altitude 10° 02:42:04 10° 195° (SSW) 4,314 12.8 -9.2°
Sets 02:46:27 0° 176° (S) 4,774 13.1 -8.8°
